Time,TemperatureF,DewpointF,PressureIn,WindDirection,WindDirectionDegrees,WindSpeedMPH,WindSpeedGustMPH,Humidity,HourlyPrecipIn,Conditions,Clouds,dailyrainin,SolarRadiationWatts/m^2,SoftwareType,DateUTC
2013-03-18 00:00:00,31.0,11.7,29.88,NNW,338,1.0,5.0,44,0.00,,,0.00,0,WeatherCatV1.14B232,2013-03-18 06:00:00,
2013-03-18 00:05:00,30.6,8.0,29.89,NNW,338,2.0,8.0,38,0.00,,,0.00,0,WeatherCatV1.14B232,2013-03-18 06:05:00,
2013-03-18 00:10:00,30.6,8.0,29.89,NNW,338,2.0,8.0,38,0.00,,,0.00,0,WeatherCatV1.14B232,2013-03-18 06:10:00,
2013-03-18 00:15:00,30.6,8.0,29.89,NNW,338,2.0,8.0,38,0.00,,,0.00,0,WeatherCatV1.14B232,2013-03-18 06:15:00,
2013-03-18 00:20:00,31.6,5.8,29.89,NW,315,2.0,18.0,33,0.00,,,0.00,0,WeatherCatV1.14B232,2013-03-18 06:20:00,
2013-03-18 00:25:00,31.6,5.8,29.89,NW,315,2.0,18.0,33,0.00,,,0.00,0,WeatherCatV1.14B232,2013-03-18 06:25:00,
2013-03-18 00:30:00,31.6,5.8,29.89,NW,315,2.0,18.0,33,0.00,,,0.00,0,WeatherCatV1.14B232,2013-03-18 06:30:00,
2013-03-18 00:35:00,31.8,3.9,29.90,NW,315,8.0,31.0,30,0.00,,,0.00,0,WeatherCatV1.14B232,2013-03-18 06:35:00,
2013-03-18 00:40:00,31.8,3.9,29.90,NW,315,8.0,31.0,30,0.00,,,0.00,0,WeatherCatV1.14B232,2013-03-18 06:40:00,
2013-03-18 00:45:00,31.8,3.9,29.90,NW,315,8.0,31.0,30,0.00,,,0.00,0,WeatherCatV1.14B232,2013-03-18 06:45:00,
2013-03-18 00:50:00,31.3,4.2,29.89,NW,315,7.0,20.0,31,0.00,,,0.00,0,WeatherCatV1.14B232,2013-03-18 06:50:00,
2013-03-18 00:55:00,31.3,4.2,29.89,NW,315,7.0,20.0,31,0.00,,,0.00,0,WeatherCatV1.14B232,2013-03-18 06:55:00,
2013-03-18 01:00:00,31.3,4.2,29.89,NW,315,7.0,20.0,31,0.00,,,0.00,0,WeatherCatV1.14B232,2013-03-18 07:00:00,
2013-03-18 01:05:00,30.9,3.9,29.89,WSW,248,4.0,12.0,31,0.00,,,0.00,0,WeatherCatV1.14B232,2013-03-18 07:05:00,
2013-03-18 01:10:00,30.9,3.9,29.89,WSW,248,4.0,12.0,31,0.00,,,0.00,0,WeatherCatV1.14B232,2013-03-18 07:10:00,
2013-03-18 01:15:00,30.9,3.9,29.89,WSW,248,4.0,12.0,31,0.00,,,0.00,0,WeatherCatV1.14B232,2013-03-18 07:15:00,
2013-03-18 01:20:00,30.3,3.3,29.89,West,270,4.0,12.0,31,0.00,,,0.00,0,WeatherCatV1.14B232,2013-03-18 07:20:00,
2013-03-18 01:25:00,30.3,3.3,29.89,West,270,4.0,12.0,31,0.00,,,0.00,0,WeatherCatV1.14B232,2013-03-18 07:25:00,
2013-03-18 01:30:00,29.8,1.5,29.90,NW,315,3.0,10.0,29,0.00,,,0.00,0,WeatherCatV1.14B232,2013-03-18 07:30:00,
2013-03-18 01:35:00,29.8,1.5,29.90,NW,315,3.0,10.0,29,0.00,,,0.00,0,WeatherCatV1.14B232,2013-03-18 07:35:00,
2013-03-18 01:40:00,29.8,1.5,29.90,NW,315,3.0,10.0,29,0.00,,,0.00,0,WeatherCatV1.14B232,2013-03-18 07:40:00,
2013-03-18 01:45:00,29.5,0.5,29.90,NW,315,2.0,11.0,28,0.00,,,0.00,0,WeatherCatV1.14B232,2013-03-18 07:45:00,
2013-03-18 01:50:00,29.5,0.5,29.90,NW,315,2.0,11.0,28,0.00,,,0.00,0,WeatherCatV1.14B232,2013-03-18 07:50:00,
2013-03-18 01:55:00,29.5,0.5,29.90,NW,315,2.0,11.0,28,0.00,,,0.00,0,WeatherCatV1.14B232,2013-03-18 07:55:00,
2013-03-18 02:00:00,29.3,-0.5,29.90,WNW,292,3.0,10.0,27,0.00,,,0.00,0,WeatherCatV1.14B232,2013-03-18 08:00:00,
2013-03-18 02:05:00,29.3,-0.5,29.90,WNW,292,3.0,10.0,27,0.00,,,0.00,0,WeatherCatV1.14B232,2013-03-18 08:05:00,
2013-03-18 02:10:00,29.3,-0.5,29.90,WNW,292,3.0,10.0,27,0.00,,,0.00,0,WeatherCatV1.14B232,2013-03-18 08:10:00,
2013-03-18 02:15:00,29.0,-0.7,29.91,WNW,292,2.0,11.0,27,0.00,,,0.00,0,WeatherCatV1.14B232,2013-03-18 08:15:00,
2013-03-18 02:20:00,29.0,-0.7,29.91,WNW,292,2.0,11.0,27,0.00,,,0.00,0,WeatherCatV1.14B232,2013-03-18 08:20:00,
2013-03-18 02:25:00,29.0,-0.7,29.91,WNW,292,2.0,11.0,27,0.00,,,0.00,0,WeatherCatV1.14B232,2013-03-18 08:25:00,
2013-03-18 02:30:00,29.0,-0.7,29.91,WNW,292,2.0,11.0,27,0.00,,,0.00,0,WeatherCatV1.14B232,2013-03-18 08:30:00,
2013-03-18 02:35:00,28.8,-0.1,29.91,West,270,5.0,17.0,28,0.00,,,0.00,0,WeatherCatV1.14B232,2013-03-18 08:35:00,
2013-03-18 02:40:00,28.8,-0.1,29.91,West,270,5.0,17.0,28,0.00,,,0.00,0,WeatherCatV1.14B232,2013-03-18 08:40:00,
2013-03-18 02:45:00,28.8,-0.1,29.91,West,270,5.0,17.0,28,0.00,,,0.00,0,WeatherCatV1.14B232,2013-03-18 08:45:00,
2013-03-18 02:50:00,28.8,0.6,29.91,WSW,248,11.0,22.0,29,0.00,,,0.00,0,WeatherCatV1.14B232,2013-03-18 08:50:00,
2013-03-18 02:55:00,28.8,0.6,29.91,WSW,248,11.0,22.0,29,0.00,,,0.00,0,WeatherCatV1.14B232,2013-03-18 08:55:00,
2013-03-18 03:00:00,28.8,0.6,29.91,WSW,248,11.0,22.0,29,0.00,,,0.00,0,WeatherCatV1.14B232,2013-03-18 09:00:00,
2013-03-18 03:05:00,28.7,0.5,29.91,West,270,13.0,28.0,29,0.00,,,0.00,0,WeatherCatV1.14B232,2013-03-18 09:05:00,
2013-03-18 03:10:00,28.7,0.5,29.91,West,270,13.0,28.0,29,0.00,,,0.00,0,WeatherCatV1.14B232,2013-03-18 09:10:00,
2013-03-18 03:15:00,28.7,0.5,29.91,West,270,13.0,28.0,29,0.00,,,0.00,0,WeatherCatV1.14B232,2013-03-18 09:15:00,
2013-03-18 03:20:00,28.5,0.3,29.91,WSW,248,11.0,20.0,29,0.00,,,0.00,0,WeatherCatV1.14B232,2013-03-18 09:20:00,
2013-03-18 03:25:00,28.5,0.3,29.91,WSW,248,11.0,20.0,29,0.00,,,0.00,0,WeatherCatV1.14B232,2013-03-18 09:25:00,
2013-03-18 03:30:00,28.5,0.3,29.91,WSW,248,11.0,20.0,29,0.00,,,0.00,0,WeatherCatV1.14B232,2013-03-18 09:30:00,
2013-03-18 03:35:00,28.4,-0.5,29.91,West,270,11.0,24.0,28,0.00,,,0.00,0,WeatherCatV1.14B232,2013-03-18 09:35:00,
2013-03-18 03:40:00,28.4,-0.5,29.91,West,270,11.0,24.0,28,0.00,,,0.00,0,WeatherCatV1.14B232,2013-03-18 09:40:00,
2013-03-18 03:45:00,28.4,-0.5,29.91,West,270,11.0,24.0,28,0.00,,,0.00,0,WeatherCatV1.14B232,2013-03-18 09:45:00,
2013-03-18 03:50:00,28.2,0.1,29.92,WSW,248,10.0,21.0,29,0.00,,,0.00,0,WeatherCatV1.14B232,2013-03-18 09:50:00,
2013-03-18 03:55:00,28.2,0.1,29.92,WSW,248,10.0,21.0,29,0.00,,,0.00,0,WeatherCatV1.14B232,2013-03-18 09:55:00,
2013-03-18 04:00:00,28.2,0.1,29.92,WSW,248,10.0,21.0,29,0.00,,,0.00,0,WeatherCatV1.14B232,2013-03-18 10:00:00,
2013-03-18 04:05:00,27.9,0.5,29.91,SW,225,8.0,22.0,30,0.00,,,0.00,0,WeatherCatV1.14B232,2013-03-18 10:05:00,
2013-03-18 04:10:00,27.9,0.5,29.91,SW,225,8.0,22.0,30,0.00,,,0.00,0,WeatherCatV1.14B232,2013-03-18 10:10:00,
2013-03-18 04:15:00,27.9,0.5,29.91,SW,225,8.0,22.0,30,0.00,,,0.00,0,WeatherCatV1.14B232,2013-03-18 10:15:00,
2013-03-18 04:20:00,27.8,1.1,29.91,WSW,248,9.0,22.0,31,0.00,,,0.00,0,WeatherCatV1.14B232,2013-03-18 10:20:00,
2013-03-18 04:25:00,27.8,1.1,29.91,WSW,248,9.0,22.0,31,0.00,,,0.00,0,WeatherCatV1.14B232,2013-03-18 10:25:00,
2013-03-18 04:30:00,27.8,1.1,29.91,WSW,248,9.0,22.0,31,0.00,,,0.00,0,WeatherCatV1.14B232,2013-03-18 10:30:00,
2013-03-18 04:35:00,27.8,1.1,29.91,WSW,248,9.0,21.0,31,0.00,,,0.00,0,WeatherCatV1.14B232,2013-03-18 10:35:00,
2013-03-18 04:40:00,27.8,1.1,29.91,WSW,248,9.0,21.0,31,0.00,,,0.00,0,WeatherCatV1.14B232,2013-03-18 10:40:00,
2013-03-18 04:45:00,27.8,1.1,29.91,WSW,248,9.0,21.0,31,0.00,,,0.00,0,WeatherCatV1.14B232,2013-03-18 10:45:00,
2013-03-18 04:50:00,27.8,1.1,29.91,West,270,8.0,18.0,31,0.00,,,0.00,0,WeatherCatV1.14B232,2013-03-18 10:50:00,
2013-03-18 04:55:00,27.8,1.1,29.91,West,270,8.0,18.0,31,0.00,,,0.00,0,WeatherCatV1.14B232,2013-03-18 10:55:00,
2013-03-18 05:07:00,27.8,1.1,29.91,West,270,8.0,18.0,31,0.00,,,0.00,0,WeatherCatV1.14B232,2013-03-18 11:07:00,
2013-03-18 05:12:00,27.8,2.5,29.91,SW,217,11.0,13.0,33,0.00,,,0.00,0,WeatherCatV1.14B232,2013-03-18 11:12:00,
2013-03-18 05:17:00,27.6,2.9,29.91,WSW,254,5.0,11.0,34,0.00,,,0.00,0,WeatherCatV1.14B232,2013-03-18 11:17:00,
2013-03-18 05:22:00,27.6,3.6,29.91,West,272,5.0,5.0,35,0.00,,,0.00,0,WeatherCatV1.14B232,2013-03-18 11:22:00,
2013-03-18 05:27:00,27.5,3.5,29.91,WSW,247,5.0,10.0,35,0.00,,,0.00,0,WeatherCatV1.14B232,2013-03-18 11:27:00,
2013-03-18 05:31:00,27.5,4.1,29.91,WSW,251,8.0,21.0,36,0.00,,,0.00,0,WeatherCatV1.14B232,2013-03-18 11:31:00,
2013-03-18 05:36:00,27.5,4.1,29.91,SW,216,6.0,14.0,36,0.00,,,0.00,0,WeatherCatV1.14B232,2013-03-18 11:36:00,
2013-03-18 05:41:00,27.3,4.5,29.91,West,267,10.0,17.0,37,0.00,,,0.00,0,WeatherCatV1.14B232,2013-03-18 11:41:00,
2013-03-18 05:46:00,27.2,5.0,29.91,WSW,256,6.0,13.0,38,0.00,,,0.00,0,WeatherCatV1.14B232,2013-03-18 11:46:00,
2013-03-18 05:51:00,27.2,5.0,29.91,SW,230,9.0,17.0,38,0.00,,,0.00,0,WeatherCatV1.14B232,2013-03-18 11:51:00,
2013-03-18 05:56:00,26.9,6.4,29.91,WNW,292,8.0,14.0,41,0.00,,,0.00,0,WeatherCatV1.14B232,2013-03-18 11:56:00,
2013-03-18 06:01:00,26.6,7.7,29.92,WSW,248,13.0,13.0,44,0.00,,,0.00,0,WeatherCatV1.14B232,2013-03-18 12:01:00,
2013-03-18 06:06:00,26.3,6.9,29.92,SW,220,12.0,14.0,43,0.00,,,0.00,0,WeatherCatV1.14B232,2013-03-18 12:06:00,
2013-03-18 06:11:00,26.3,6.9,29.92,West,272,10.0,12.0,43,0.00,,,0.00,0,WeatherCatV1.14B232,2013-03-18 12:11:00,
2013-03-18 06:16:00,26.3,7.4,29.92,West,261,8.0,17.0,44,0.00,,,0.00,0,WeatherCatV1.14B232,2013-03-18 12:16:00,
2013-03-18 06:21:00,26.1,7.7,29.92,SW,234,10.0,16.0,45,0.00,,,0.00,0,WeatherCatV1.14B232,2013-03-18 12:21:00,
2013-03-18 06:26:00,25.8,8.4,29.92,WSW,254,8.0,9.0,47,0.00,,,0.00,0,WeatherCatV1.14B232,2013-03-18 12:26:00,
2013-03-18 06:31:00,25.6,9.6,29.93,West,265,10.0,16.0,50,0.00,,,0.00,0,WeatherCatV1.14B232,2013-03-18 12:31:00,
2013-03-18 06:36:00,25.4,9.8,29.93,WSW,246,0.0,8.0,51,0.00,,,0.00,0,WeatherCatV1.14B232,2013-03-18 12:36:00,
2013-03-18 06:42:00,25.3,9.7,29.93,WSW,244,1.0,1.0,51,0.00,,,0.00,0,WeatherCatV1.14B232,2013-03-18 12:42:00,
2013-03-18 06:47:00,25.1,10.4,29.93,SW,226,5.0,13.0,53,0.00,,,0.00,0,WeatherCatV1.14B232,2013-03-18 12:47:00,
2013-03-18 06:52:00,25.0,10.3,29.93,WSW,239,9.0,11.0,53,0.00,,,0.00,0,WeatherCatV1.14B232,2013-03-18 12:52:00,
2013-03-18 06:57:00,25.0,10.3,29.93,WSW,256,8.0,12.0,53,0.00,,,0.00,0,WeatherCatV1.14B232,2013-03-18 12:57:00,
2013-03-18 07:02:00,25.0,10.3,29.93,SW,219,3.0,7.0,53,0.00,,,0.00,0,WeatherCatV1.14B232,2013-03-18 13:02:00,
2013-03-18 07:07:00,25.0,10.7,29.93,WSW,257,7.0,8.0,54,0.00,,,0.00,0,WeatherCatV1.14B232,2013-03-18 13:07:00,
2013-03-18 07:12:00,25.0,10.7,29.93,West,261,6.0,14.0,54,0.00,,,0.00,0,WeatherCatV1.14B232,2013-03-18 13:12:00,
2013-03-18 07:17:00,24.8,11.4,29.93,SW,226,6.0,10.0,56,0.00,,,0.00,0,WeatherCatV1.14B232,2013-03-18 13:17:00,
2013-03-18 07:22:00,24.8,11.8,29.93,WSW,253,5.0,12.0,57,0.00,,,0.00,5,WeatherCatV1.14B232,2013-03-18 13:22:00,
2013-03-18 07:27:00,24.7,12.4,29.93,WSW,243,0.0,2.0,59,0.00,,,0.00,7,WeatherCatV1.14B232,2013-03-18 13:27:00,
2013-03-18 07:32:00,24.5,13.0,29.94,WSW,258,3.0,8.0,61,0.00,,,0.00,9,WeatherCatV1.14B232,2013-03-18 13:32:00,
2013-03-18 07:37:00,24.4,13.3,29.94,WSW,243,6.0,8.0,62,0.00,,,0.00,12,WeatherCatV1.14B232,2013-03-18 13:37:00,
2013-03-18 07:42:00,24.2,13.8,29.94,WNW,295,5.0,11.0,64,0.00,,,0.00,14,WeatherCatV1.14B232,2013-03-18 13:42:00,
2013-03-18 07:47:00,24.1,14.4,29.94,WNW,296,3.0,5.0,66,0.00,,,0.00,18,WeatherCatV1.14B232,2013-03-18 13:47:00,
2013-03-18 07:52:00,23.9,14.2,29.94,WNW,296,2.0,6.0,66,0.00,,,0.00,19,WeatherCatV1.14B232,2013-03-18 13:52:00,
2013-03-18 07:57:00,23.9,14.2,29.94,WNW,292,3.0,4.0,66,0.00,,,0.00,25,WeatherCatV1.14B232,2013-03-18 13:57:00,
2013-03-18 08:02:00,23.9,14.9,29.95,NW,323,3.0,6.0,68,0.00,,,0.00,28,WeatherCatV1.14B232,2013-03-18 14:02:00,
2013-03-18 08:07:00,23.9,14.9,29.95,NW,316,2.0,2.0,68,0.00,,,0.00,32,WeatherCatV1.14B232,2013-03-18 14:07:00,
2013-03-18 08:12:00,23.8,15.5,29.95,NW,306,1.0,3.0,70,0.00,,,0.00,35,WeatherCatV1.14B232,2013-03-18 14:12:00,
2013-03-18 08:17:00,23.8,15.5,29.95,WNW,289,3.0,10.0,70,0.00,,,0.00,40,WeatherCatV1.14B232,2013-03-18 14:17:00,
2013-03-18 08:22:00,23.8,16.1,29.95,WNW,287,0.0,0.0,72,0.00,,,0.00,44,WeatherCatV1.14B232,2013-03-18 14:22:00,
2013-03-18 08:27:00,23.8,16.1,29.95,WNW,287,0.0,0.0,72,0.00,,,0.00,60,WeatherCatV1.14B232,2013-03-18 14:27:00,
2013-03-18 08:32:00,23.9,16.2,29.96,WNW,295,9.0,11.0,72,0.00,,,0.00,62,WeatherCatV1.14B232,2013-03-18 14:32:00,
2013-03-18 08:37:00,24.1,16.1,29.96,WNW,295,0.0,7.0,71,0.00,,,0.00,60,WeatherCatV1.14B232,2013-03-18 14:37:00,
2013-03-18 08:42:00,24.1,16.1,29.96,WNW,284,2.0,3.0,71,0.00,,,0.00,69,WeatherCatV1.14B232,2013-03-18 14:42:00,
2013-03-18 08:47:00,24.2,15.9,29.96,WSW,239,3.0,8.0,70,0.00,,,0.00,74,WeatherCatV1.14B232,2013-03-18 14:47:00,
2013-03-18 08:52:00,24.2,16.2,29.96,SW,236,5.0,8.0,71,0.00,,,0.00,70,WeatherCatV1.14B232,2013-03-18 14:52:00,
2013-03-18 08:57:00,24.4,16.0,29.96,WSW,237,3.0,3.0,70,0.00,,,0.00,76,WeatherCatV1.14B232,2013-03-18 14:57:00,
2013-03-18 09:02:00,24.4,16.0,29.97,WSW,237,2.0,7.0,70,0.00,,,0.00,81,WeatherCatV1.14B232,2013-03-18 15:02:00,
2013-03-18 09:07:00,24.4,16.0,29.97,WSW,237,6.0,7.0,70,0.00,,,0.00,91,WeatherCatV1.14B232,2013-03-18 15:07:00,
2013-03-18 09:12:00,24.4,16.0,29.97,WSW,239,5.0,6.0,70,0.00,,,0.00,93,WeatherCatV1.14B232,2013-03-18 15:12:00,
2013-03-18 09:17:00,24.4,16.0,29.97,WSW,240,6.0,6.0,70,0.00,,,0.00,107,WeatherCatV1.14B232,2013-03-18 15:17:00,
2013-03-18 09:22:00,24.4,16.4,29.97,WSW,250,5.0,7.0,71,0.00,,,0.00,107,WeatherCatV1.14B232,2013-03-18 15:22:00,
2013-03-18 09:27:00,24.4,16.0,29.97,WSW,250,0.0,0.0,70,0.00,,,0.00,118,WeatherCatV1.14B232,2013-03-18 15:27:00,
2013-03-18 09:32:00,24.7,17.3,29.97,WSW,248,1.0,2.0,73,0.00,,,0.00,120,WeatherCatV1.14B232,2013-03-18 15:32:00,
2013-03-18 09:37:00,24.8,17.1,29.97,WSW,250,0.0,2.0,72,0.00,,,0.00,128,WeatherCatV1.14B232,2013-03-18 15:37:00,
2013-03-18 09:42:00,24.8,17.4,29.97,WSW,250,2.0,5.0,73,0.00,,,0.00,197,WeatherCatV1.14B232,2013-03-18 15:42:00,
2013-03-18 09:47:00,25.0,16.9,29.98,WSW,250,3.0,4.0,71,0.00,,,0.00,190,WeatherCatV1.14B232,2013-03-18 15:47:00,
2013-03-18 09:52:00,25.1,16.7,29.98,West,267,3.0,7.0,70,0.00,,,0.00,179,WeatherCatV1.14B232,2013-03-18 15:52:00,
2013-03-18 09:57:00,25.3,15.2,29.98,NW,305,10.0,14.0,65,0.00,,,0.00,195,WeatherCatV1.14B232,2013-03-18 15:57:00,
2013-03-18 10:02:00,25.4,15.3,29.98,WNW,282,9.0,9.0,65,0.00,,,0.00,211,WeatherCatV1.14B232,2013-03-18 16:02:00,
2013-03-18 10:07:00,25.7,15.2,29.98,West,281,11.0,16.0,64,0.00,,,0.00,274,WeatherCatV1.14B232,2013-03-18 16:07:00,
2013-03-18 10:12:00,25.8,15.7,29.98,SW,232,6.0,10.0,65,0.00,,,0.00,296,WeatherCatV1.14B232,2013-03-18 16:12:00,
2013-03-18 10:17:00,26.1,16.0,29.98,West,271,7.0,8.0,65,0.00,,,0.00,264,WeatherCatV1.14B232,2013-03-18 16:17:00,
2013-03-18 10:22:00,26.4,15.2,29.98,West,267,5.0,12.0,62,0.00,,,0.00,273,WeatherCatV1.14B232,2013-03-18 16:22:00,
2013-03-18 10:27:00,26.6,15.4,29.98,West,274,6.0,16.0,62,0.00,,,0.00,308,WeatherCatV1.14B232,2013-03-18 16:27:00,
2013-03-18 10:32:00,26.7,15.1,29.98,West,281,7.0,11.0,61,0.00,,,0.00,315,WeatherCatV1.14B232,2013-03-18 16:32:00,
2013-03-18 10:37:00,26.9,14.5,29.98,West,261,7.0,14.0,59,0.00,,,0.00,352,WeatherCatV1.14B232,2013-03-18 16:37:00,
2013-03-18 10:42:00,27.2,14.0,29.98,WSW,254,6.0,11.0,57,0.00,,,0.00,352,WeatherCatV1.14B232,2013-03-18 16:42:00,
2013-03-18 10:47:00,27.6,15.6,29.99,NW,304,9.0,14.0,60,0.00,,,0.00,428,WeatherCatV1.14B232,2013-03-18 16:47:00,
2013-03-18 10:52:00,27.9,13.9,29.99,South,175,12.0,18.0,55,0.00,,,0.00,315,WeatherCatV1.14B232,2013-03-18 16:52:00,
2013-03-18 10:57:00,27.5,13.1,29.99,SSW,205,7.0,20.0,54,0.00,,,0.00,320,WeatherCatV1.14B232,2013-03-18 16:57:00,
2013-03-18 11:02:00,27.6,12.7,29.99,West,261,6.0,18.0,53,0.00,,,0.00,289,WeatherCatV1.14B232,2013-03-18 17:02:00,
2013-03-18 11:07:00,28.1,13.2,29.99,WSW,248,11.0,21.0,53,0.00,,,0.00,378,WeatherCatV1.14B232,2013-03-18 17:07:00,
2013-03-18 11:12:00,28.4,13.0,29.99,NW,326,13.0,13.0,52,0.00,,,0.00,392,WeatherCatV1.14B232,2013-03-18 17:12:00,
2013-03-18 11:17:00,29.0,13.2,29.99,WNW,292,7.0,13.0,51,0.00,,,0.00,503,WeatherCatV1.14B232,2013-03-18 17:17:00,
2013-03-18 11:22:00,29.5,11.8,29.99,West,267,18.0,24.0,47,0.00,,,0.00,480,WeatherCatV1.14B232,2013-03-18 17:22:00,
2013-03-18 11:27:00,29.4,11.7,29.99,SW,232,12.0,16.0,47,0.00,,,0.00,392,WeatherCatV1.14B232,2013-03-18 17:27:00,
2013-03-18 11:32:00,29.8,12.1,29.98,West,260,11.0,18.0,47,0.00,,,0.00,391,WeatherCatV1.14B232,2013-03-18 17:32:00,
2013-03-18 11:37:00,30.7,12.9,29.98,WSW,257,17.0,17.0,47,0.00,,,0.00,491,WeatherCatV1.14B232,2013-03-18 17:37:00,
2013-03-18 11:42:00,30.4,11.6,29.98,SW,232,12.0,20.0,45,0.00,,,0.00,542,WeatherCatV1.14B232,2013-03-18 17:42:00,
2013-03-18 11:47:00,31.2,13.3,29.98,West,275,27.0,27.0,47,0.00,,,0.00,542,WeatherCatV1.14B232,2013-03-18 17:47:00,
2013-03-18 11:52:00,31.2,12.4,29.98,WNW,285,22.0,25.0,45,0.00,,,0.00,677,WeatherCatV1.14B232,2013-03-18 17:52:00,
2013-03-18 11:57:00,31.0,13.2,29.98,WSW,246,20.0,21.0,47,0.00,,,0.00,512,WeatherCatV1.14B232,2013-03-18 17:57:00,
2013-03-18 12:02:00,30.6,13.7,29.99,WNW,295,7.0,24.0,49,0.00,,,0.00,512,WeatherCatV1.14B232,2013-03-18 18:02:00,
2013-03-18 12:07:00,30.9,12.1,29.99,WNW,292,18.0,25.0,45,0.00,,,0.00,419,WeatherCatV1.14B232,2013-03-18 18:07:00,
2013-03-18 12:12:00,31.9,12.5,29.99,SSE,154,7.0,15.0,44,0.00,,,0.00,639,WeatherCatV1.14B232,2013-03-18 18:12:00,
2013-03-18 12:17:00,32.2,12.2,29.98,SSW,203,8.0,21.0,43,0.00,,,0.00,595,WeatherCatV1.14B232,2013-03-18 18:17:00,
2013-03-18 12:22:00,32.2,13.3,29.98,SW,217,21.0,28.0,45,0.00,,,0.00,799,WeatherCatV1.14B232,2013-03-18 18:22:00,
2013-03-18 12:27:00,32.2,11.7,29.98,NW,316,16.0,31.0,42,0.00,,,0.00,911,WeatherCatV1.14B232,2013-03-18 18:27:00,
2013-03-18 12:32:00,31.8,12.4,29.99,NW,305,3.0,29.0,44,0.00,,,0.00,707,WeatherCatV1.14B232,2013-03-18 18:32:00,
2013-03-18 12:37:00,31.9,12.5,29.99,SW,222,12.0,14.0,44,0.00,,,0.00,707,WeatherCatV1.14B232,2013-03-18 18:37:00,
2013-03-18 12:42:00,32.8,11.2,29.99,WNW,285,17.0,19.0,40,0.00,,,0.00,704,WeatherCatV1.14B232,2013-03-18 18:42:00,
2013-03-18 12:47:00,33.2,8.5,29.98,West,271,28.0,29.0,35,0.00,,,0.00,582,WeatherCatV1.14B232,2013-03-18 18:47:00,
2013-03-18 12:52:00,33.4,10.0,29.98,WSW,256,7.0,28.0,37,0.00,,,0.00,582,WeatherCatV1.14B232,2013-03-18 18:52:00,
2013-03-18 12:57:00,33.8,10.3,29.98,West,278,18.0,21.0,37,0.00,,,0.00,684,WeatherCatV1.14B232,2013-03-18 18:57:00,
2013-03-18 13:02:00,32.4,11.9,29.99,WNW,289,22.0,26.0,42,0.00,,,0.00,684,WeatherCatV1.14B232,2013-03-18 19:02:00,
2013-03-18 13:07:00,31.3,12.9,29.99,SW,230,7.0,25.0,46,0.00,,,0.00,496,WeatherCatV1.14B232,2013-03-18 19:07:00,
2013-03-18 13:12:00,31.3,11.9,29.99,NW,308,20.0,21.0,44,0.00,,,0.00,405,WeatherCatV1.14B232,2013-03-18 19:12:00,
2013-03-18 13:17:00,31.6,11.7,29.98,WNW,291,16.0,28.0,43,0.00,,,0.00,394,WeatherCatV1.14B232,2013-03-18 19:17:00,
2013-03-18 13:22:00,31.6,13.2,29.98,WNW,282,8.0,26.0,46,0.00,,,0.00,406,WeatherCatV1.14B232,2013-03-18 19:22:00,
2013-03-18 13:27:00,31.9,12.0,29.98,SSW,212,6.0,17.0,43,0.00,,,0.00,466,WeatherCatV1.14B232,2013-03-18 19:27:00,
2013-03-18 13:32:00,32.7,11.1,29.98,West,274,18.0,21.0,40,0.00,,,0.00,406,WeatherCatV1.14B232,2013-03-18 19:32:00,
2013-03-18 13:37:00,32.5,11.4,29.98,NW,305,12.0,16.0,41,0.00,,,0.00,588,WeatherCatV1.14B232,2013-03-18 19:37:00,
2013-03-18 13:42:00,33.1,9.7,29.98,SW,233,13.0,24.0,37,0.00,,,0.00,649,WeatherCatV1.14B232,2013-03-18 19:42:00,
2013-03-18 13:47:00,34.1,9.3,29.97,West,274,11.0,22.0,35,0.00,,,0.00,519,WeatherCatV1.14B232,2013-03-18 19:47:00,
2013-03-18 13:52:00,33.7,9.0,29.97,WSW,244,12.0,21.0,35,0.00,,,0.00,477,WeatherCatV1.14B232,2013-03-18 19:52:00,
2013-03-18 13:57:00,33.5,8.8,29.97,WSW,250,13.0,19.0,35,0.00,,,0.00,438,WeatherCatV1.14B232,2013-03-18 19:57:00,
2013-03-18 14:02:00,33.7,9.6,29.97,WSW,256,17.0,19.0,36,0.00,,,0.00,600,WeatherCatV1.14B232,2013-03-18 20:02:00,
2013-03-18 14:07:00,33.7,9.0,29.97,WSW,253,18.0,27.0,35,0.00,,,0.00,556,WeatherCatV1.14B232,2013-03-18 20:07:00,
2013-03-18 14:12:00,33.7,11.4,29.97,NW,322,13.0,25.0,39,0.00,,,0.00,503,WeatherCatV1.14B232,2013-03-18 20:12:00,
2013-03-18 14:17:00,34.3,11.4,29.97,WNW,282,5.0,9.0,38,0.00,,,0.00,486,WeatherCatV1.14B232,2013-03-18 20:17:00,
2013-03-18 14:22:00,34.7,9.2,29.97,West,268,11.0,16.0,34,0.00,,,0.00,795,WeatherCatV1.14B232,2013-03-18 20:22:00,
2013-03-18 14:27:00,35.6,8.0,29.97,SW,230,13.0,25.0,31,0.00,,,0.00,588,WeatherCatV1.14B232,2013-03-18 20:27:00,
2013-03-18 14:32:00,35.2,8.3,29.96,NW,318,11.0,19.0,32,0.00,,,0.00,417,WeatherCatV1.14B232,2013-03-18 20:32:00,
2013-03-18 14:37:00,34.9,7.4,29.96,SW,229,24.0,26.0,31,0.00,,,0.00,542,WeatherCatV1.14B232,2013-03-18 20:37:00,
2013-03-18 14:42:00,35.0,7.5,29.96,West,280,6.0,16.0,31,0.00,,,0.00,600,WeatherCatV1.14B232,2013-03-18 20:42:00,
2013-03-18 14:47:00,35.8,5.9,29.95,SSW,213,18.0,25.0,28,0.00,,,0.00,734,WeatherCatV1.14B232,2013-03-18 20:47:00,
2013-03-18 14:52:00,36.2,7.0,29.95,WSW,253,19.0,22.0,29,0.00,,,0.00,897,WeatherCatV1.14B232,2013-03-18 20:52:00,
2013-03-18 14:57:00,35.5,8.6,29.95,West,268,19.0,34.0,32,0.00,,,0.00,399,WeatherCatV1.14B232,2013-03-18 20:57:00,
2013-03-18 15:02:00,34.6,7.8,29.96,SSW,200,16.0,28.0,32,0.00,,,0.00,521,WeatherCatV1.14B232,2013-03-18 21:02:00,
2013-03-18 15:07:00,35.0,8.8,29.96,SW,234,2.0,21.0,33,0.00,,,0.00,521,WeatherCatV1.14B232,2013-03-18 21:07:00,
2013-03-18 15:12:00,36.0,8.3,29.96,SSW,212,20.0,31.0,31,0.00,,,0.00,822,WeatherCatV1.14B232,2013-03-18 21:12:00,
2013-03-18 15:17:00,35.3,9.8,29.95,SW,224,10.0,26.0,34,0.00,,,0.00,880,WeatherCatV1.14B232,2013-03-18 21:17:00,
2013-03-18 15:22:00,34.6,9.8,29.95,West,261,25.0,33.0,35,0.00,,,0.00,419,WeatherCatV1.14B232,2013-03-18 21:22:00,
2013-03-18 15:27:00,34.4,10.9,29.95,West,260,8.0,28.0,37,0.00,,,0.00,494,WeatherCatV1.14B232,2013-03-18 21:27:00,
2013-03-18 15:32:00,34.9,10.1,29.95,WSW,254,22.0,28.0,35,0.00,,,0.00,899,WeatherCatV1.14B232,2013-03-18 21:32:00,
2013-03-18 15:37:00,35.5,7.9,29.95,WNW,282,13.0,30.0,31,0.00,,,0.00,816,WeatherCatV1.14B232,2013-03-18 21:37:00,
2013-03-18 15:42:00,35.2,9.0,29.95,West,270,24.0,33.0,33,0.00,,,0.00,774,WeatherCatV1.14B232,2013-03-18 21:42:00,
2013-03-18 15:47:00,35.5,7.2,29.95,WSW,243,21.0,35.0,30,0.00,,,0.00,795,WeatherCatV1.14B232,2013-03-18 21:47:00,
2013-03-18 15:52:00,35.2,8.3,29.95,SW,234,33.0,33.0,32,0.00,,,0.00,517,WeatherCatV1.14B232,2013-03-18 21:52:00,
2013-03-18 15:57:00,34.9,10.1,29.95,NW,315,10.0,28.0,35,0.00,,,0.00,706,WeatherCatV1.14B232,2013-03-18 21:57:00,
2013-03-18 16:02:00,36.2,6.3,29.94,West,264,11.0,31.0,28,0.00,,,0.00,568,WeatherCatV1.14B232,2013-03-18 22:02:00,
2013-03-18 16:07:00,36.9,6.1,29.94,WNW,285,20.0,21.0,27,0.00,,,0.00,586,WeatherCatV1.14B232,2013-03-18 22:07:00,
2013-03-18 16:12:00,37.3,7.2,29.94,WSW,250,11.0,19.0,28,0.00,,,0.00,556,WeatherCatV1.14B232,2013-03-18 22:12:00,
2013-03-18 16:17:00,36.6,8.1,29.94,NNW,332,10.0,26.0,30,0.00,,,0.00,220,WeatherCatV1.14B232,2013-03-18 22:17:00,
2013-03-18 16:22:00,35.9,8.2,29.94,WNW,296,10.0,22.0,31,0.00,,,0.00,530,WeatherCatV1.14B232,2013-03-18 22:22:00,
2013-03-18 16:27:00,35.9,8.2,29.94,WSW,241,19.0,25.0,31,0.00,,,0.00,164,WeatherCatV1.14B232,2013-03-18 22:27:00,
2013-03-18 16:32:00,35.0,9.5,29.95,West,265,9.0,22.0,34,0.00,,,0.00,209,WeatherCatV1.14B232,2013-03-18 22:32:00,
2013-03-18 16:37:00,35.3,7.7,29.95,SW,230,20.0,32.0,31,0.00,,,0.00,209,WeatherCatV1.14B232,2013-03-18 22:37:00,
2013-03-18 16:42:00,35.8,8.2,29.95,SSW,208,18.0,22.0,31,0.00,,,0.00,204,WeatherCatV1.14B232,2013-03-18 22:42:00,
2013-03-18 16:47:00,35.6,7.3,29.94,WNW,299,21.0,30.0,30,0.00,,,0.00,377,WeatherCatV1.14B232,2013-03-18 22:47:00,
2013-03-18 16:52:00,35.6,6.5,29.94,WSW,251,20.0,24.0,29,0.00,,,0.00,385,WeatherCatV1.14B232,2013-03-18 22:52:00,
2013-03-18 16:57:00,36.5,6.5,29.94,West,280,19.0,25.0,28,0.00,,,0.00,236,WeatherCatV1.14B232,2013-03-18 22:57:00,
2013-03-18 17:02:00,36.0,6.1,29.94,NNW,340,11.0,33.0,28,0.00,,,0.00,187,WeatherCatV1.14B232,2013-03-18 23:02:00,
2013-03-18 17:07:00,35.5,6.4,29.94,NW,315,24.0,28.0,29,0.00,,,0.00,274,WeatherCatV1.14B232,2013-03-18 23:07:00,
2013-03-18 17:12:00,36.0,6.1,29.94,WSW,240,32.0,34.0,28,0.00,,,0.00,355,WeatherCatV1.14B232,2013-03-18 23:12:00,
2013-03-18 17:17:00,35.8,6.7,29.94,WNW,292,12.0,20.0,29,0.00,,,0.00,178,WeatherCatV1.14B232,2013-03-18 23:17:00,
2013-03-18 17:22:00,35.6,6.5,29.94,SW,227,13.0,20.0,29,0.00,,,0.00,123,WeatherCatV1.14B232,2013-03-18 23:22:00,
2013-03-18 17:27:00,35.3,7.7,29.94,NW,316,6.0,26.0,31,0.00,,,0.00,199,WeatherCatV1.14B232,2013-03-18 23:27:00,
2013-03-18 17:32:00,35.3,7.7,29.95,NNW,344,7.0,17.0,31,0.00,,,0.00,185,WeatherCatV1.14B232,2013-03-18 23:32:00,
2013-03-18 17:37:00,35.3,8.4,29.95,North,0,7.0,14.0,32,0.00,,,0.00,97,WeatherCatV1.14B232,2013-03-18 23:37:00,
2013-03-18 17:42:00,35.2,6.9,29.95,WSW,254,21.0,27.0,30,0.00,,,0.00,106,WeatherCatV1.14B232,2013-03-18 23:42:00,
2013-03-18 17:47:00,35.2,6.2,29.95,WNW,302,8.0,19.0,29,0.00,,,0.00,79,WeatherCatV1.14B232,2013-03-18 23:47:00,
2013-03-18 17:52:00,35.3,6.3,29.95,WSW,247,10.0,27.0,29,0.00,,,0.00,69,WeatherCatV1.14B232,2013-03-18 23:52:00,
2013-03-18 17:57:00,35.3,7.0,29.95,West,270,17.0,20.0,30,0.00,,,0.00,91,WeatherCatV1.14B232,2013-03-18 23:57:00,
2013-03-18 18:02:00,35.2,6.9,29.95,WSW,257,5.0,21.0,30,0.00,,,0.00,67,WeatherCatV1.14B232,2013-03-19 00:02:00,
2013-03-18 18:07:00,35.3,5.5,29.95,SSW,213,24.0,24.0,28,0.00,,,0.00,62,WeatherCatV1.14B232,2013-03-19 00:07:00,
2013-03-18 18:12:00,35.5,6.4,29.95,WNW,295,5.0,15.0,29,0.00,,,0.00,40,WeatherCatV1.14B232,2013-03-19 00:12:00,
2013-03-18 18:17:00,35.5,6.4,29.96,WNW,285,8.0,13.0,29,0.00,,,0.00,40,WeatherCatV1.14B232,2013-03-19 00:17:00,
2013-03-18 18:22:00,35.5,6.4,29.96,NW,325,2.0,12.0,29,0.00,,,0.00,37,WeatherCatV1.14B232,2013-03-19 00:22:00,
2013-03-18 18:27:00,35.3,6.3,29.96,SW,230,6.0,12.0,29,0.00,,,0.00,32,WeatherCatV1.14B232,2013-03-19 00:27:00,
2013-03-18 18:32:00,35.3,5.5,29.96,SW,226,11.0,11.0,28,0.00,,,0.00,40,WeatherCatV1.14B232,2013-03-19 00:32:00,
2013-03-18 18:37:00,35.6,5.7,29.96,NW,313,10.0,26.0,28,0.00,,,0.00,48,WeatherCatV1.14B232,2013-03-19 00:37:00,
2013-03-18 18:42:00,35.8,5.9,29.96,WNW,302,19.0,19.0,28,0.00,,,0.00,25,WeatherCatV1.14B232,2013-03-19 00:42:00,
2013-03-18 18:47:00,35.9,5.2,29.96,WSW,239,11.0,40.0,27,0.00,,,0.00,19,WeatherCatV1.14B232,2013-03-19 00:47:00,
2013-03-18 18:52:00,35.8,5.9,29.96,WNW,288,21.0,35.0,28,0.00,,,0.00,14,WeatherCatV1.14B232,2013-03-19 00:52:00,
2013-03-18 18:57:00,35.6,5.7,29.96,West,268,18.0,25.0,28,0.00,,,0.00,12,WeatherCatV1.14B232,2013-03-19 00:57:00,
2013-03-18 19:02:00,35.5,5.7,29.96,WSW,254,17.0,28.0,28,0.00,,,0.00,11,WeatherCatV1.14B232,2013-03-19 01:02:00,
2013-03-18 19:07:00,35.3,5.5,29.96,West,265,14.0,29.0,28,0.00,,,0.00,9,WeatherCatV1.14B232,2013-03-19 01:07:00,
2013-03-18 19:12:00,35.3,5.5,29.96,WNW,302,12.0,31.0,28,0.00,,,0.00,7,WeatherCatV1.14B232,2013-03-19 01:12:00,
2013-03-18 19:17:00,35.2,5.4,29.96,West,267,21.0,33.0,28,0.00,,,0.00,5,WeatherCatV1.14B232,2013-03-19 01:17:00,
2013-03-18 19:22:00,35.0,5.2,29.96,West,268,18.0,26.0,28,0.00,,,0.00,0,WeatherCatV1.14B232,2013-03-19 01:22:00,
2013-03-18 19:27:00,35.0,5.2,29.96,SW,216,22.0,29.0,28,0.00,,,0.00,0,WeatherCatV1.14B232,2013-03-19 01:27:00,
2013-03-18 19:32:00,34.9,5.9,29.96,WSW,250,5.0,27.0,29,0.00,,,0.00,0,WeatherCatV1.14B232,2013-03-19 01:32:00,
2013-03-18 19:37:00,34.9,5.1,29.96,WNW,282,2.0,25.0,28,0.00,,,0.00,0,WeatherCatV1.14B232,2013-03-19 01:37:00,
2013-03-18 19:42:00,34.9,5.1,29.96,West,265,16.0,26.0,28,0.00,,,0.00,0,WeatherCatV1.14B232,2013-03-19 01:42:00,
2013-03-18 19:47:00,34.7,5.0,29.96,West,280,9.0,24.0,28,0.00,,,0.00,0,WeatherCatV1.14B232,2013-03-19 01:47:00,
2013-03-18 19:52:00,34.9,5.1,29.96,SSW,199,18.0,25.0,28,0.00,,,0.00,0,WeatherCatV1.14B232,2013-03-19 01:52:00,
2013-03-18 19:57:00,34.7,5.0,29.96,WNW,291,15.0,21.0,28,0.00,,,0.00,0,WeatherCatV1.14B232,2013-03-19 01:57:00,
2013-03-18 20:02:00,34.6,4.9,29.96,WSW,250,18.0,25.0,28,0.00,,,0.00,0,WeatherCatV1.14B232,2013-03-19 02:02:00,
2013-03-18 20:07:00,34.6,4.9,29.96,West,260,17.0,19.0,28,0.00,,,0.00,0,WeatherCatV1.14B232,2013-03-19 02:07:00,
2013-03-18 20:12:00,34.4,3.9,29.96,SSW,206,12.0,19.0,27,0.00,,,0.00,0,WeatherCatV1.14B232,2013-03-19 02:12:00,
2013-03-18 20:17:00,34.3,3.8,29.97,SW,234,5.0,20.0,27,0.00,,,0.00,0,WeatherCatV1.14B232,2013-03-19 02:17:00,
2013-03-18 20:22:00,34.1,4.4,29.97,WSW,253,11.0,24.0,28,0.00,,,0.00,0,WeatherCatV1.14B232,2013-03-19 02:22:00,
2013-03-18 20:27:00,34.1,4.4,29.97,WSW,256,8.0,26.0,28,0.00,,,0.00,0,WeatherCatV1.14B232,2013-03-19 02:27:00,
2013-03-18 20:32:00,34.3,3.8,29.97,WNW,285,14.0,24.0,27,0.00,,,0.00,0,WeatherCatV1.14B232,2013-03-19 02:32:00,
2013-03-18 20:37:00,34.4,3.9,29.97,WNW,285,18.0,29.0,27,0.00,,,0.00,0,WeatherCatV1.14B232,2013-03-19 02:37:00,
2013-03-18 20:42:00,34.4,3.9,29.97,SW,234,10.0,24.0,27,0.00,,,0.00,0,WeatherCatV1.14B232,2013-03-19 02:42:00,
2013-03-18 20:47:00,34.3,3.8,29.97,WNW,287,12.0,26.0,27,0.00,,,0.00,0,WeatherCatV1.14B232,2013-03-19 02:47:00,
2013-03-18 20:52:00,34.1,3.7,29.97,WSW,258,16.0,24.0,27,0.00,,,0.00,0,WeatherCatV1.14B232,2013-03-19 02:52:00,
2013-03-18 20:57:00,34.1,3.7,29.97,WNW,284,7.0,22.0,27,0.00,,,0.00,0,WeatherCatV1.14B232,2013-03-19 02:57:00,
2013-03-18 21:02:00,34.1,3.7,29.97,WSW,251,10.0,24.0,27,0.00,,,0.00,0,WeatherCatV1.14B232,2013-03-19 03:02:00,
2013-03-18 21:07:00,34.1,4.4,29.97,WSW,251,2.0,19.0,28,0.00,,,0.00,0,WeatherCatV1.14B232,2013-03-19 03:07:00,
2013-03-18 21:12:00,34.0,4.4,29.97,WNW,296,11.0,16.0,28,0.00,,,0.00,0,WeatherCatV1.14B232,2013-03-19 03:12:00,
2013-03-18 21:17:00,34.0,4.4,29.98,SW,219,18.0,19.0,28,0.00,,,0.00,0,WeatherCatV1.14B232,2013-03-19 03:17:00,
2013-03-18 21:22:00,33.8,4.2,29.98,WSW,254,12.0,18.0,28,0.00,,,0.00,0,WeatherCatV1.14B232,2013-03-19 03:22:00,
2013-03-18 21:27:00,33.8,4.2,29.98,WSW,246,9.0,18.0,28,0.00,,,0.00,0,WeatherCatV1.14B232,2013-03-19 03:27:00,
2013-03-18 21:32:00,34.0,3.6,29.98,WSW,251,8.0,19.0,27,0.00,,,0.00,0,WeatherCatV1.14B232,2013-03-19 03:32:00,
2013-03-18 21:37:00,34.0,3.6,29.98,SSW,195,10.0,16.0,27,0.00,,,0.00,0,WeatherCatV1.14B232,2013-03-19 03:37:00,
2013-03-18 21:42:00,33.8,4.2,29.98,SW,234,16.0,27.0,28,0.00,,,0.00,0,WeatherCatV1.14B232,2013-03-19 03:42:00,
2013-03-18 21:47:00,33.8,3.4,29.99,SW,230,2.0,18.0,27,0.00,,,0.00,0,WeatherCatV1.14B232,2013-03-19 03:47:00,
2013-03-18 21:52:00,33.8,3.4,29.99,South,186,13.0,25.0,27,0.00,,,0.00,0,WeatherCatV1.14B232,2013-03-19 03:52:00,
2013-03-18 21:57:00,33.7,4.1,29.99,NW,315,6.0,19.0,28,0.00,,,0.00,0,WeatherCatV1.14B232,2013-03-19 03:57:00,
2013-03-18 22:00:00,33.7,4.1,29.99,WSW,247,15.0,18.0,28,0.00,,,0.00,0,WeatherCatV1.14B232,2013-03-19 04:00:00,
2013-03-18 22:01:00,33.7,4.1,29.99,West,271,16.0,20.0,28,0.00,,,0.00,0,WeatherCatV1.14B232,2013-03-19 04:01:00,
2013-03-18 22:06:00,33.8,4.2,29.99,SW,232,11.0,22.0,28,0.00,,,0.00,0,WeatherCatV1.14B232,2013-03-19 04:06:00,
2013-03-18 22:11:00,33.8,3.4,29.99,West,268,6.0,27.0,27,0.00,,,0.00,0,WeatherCatV1.14B232,2013-03-19 04:11:00,
2013-03-18 22:16:00,33.8,3.4,29.99,West,277,11.0,24.0,27,0.00,,,0.00,0,WeatherCatV1.14B232,2013-03-19 04:16:00,
2013-03-18 22:21:00,33.8,3.4,29.99,WSW,247,10.0,17.0,27,0.00,,,0.00,0,WeatherCatV1.14B232,2013-03-19 04:21:00,
2013-03-18 22:26:00,33.7,4.1,29.99,NW,311,10.0,22.0,28,0.00,,,0.00,0,WeatherCatV1.14B232,2013-03-19 04:26:00,
2013-03-18 22:31:00,33.7,4.1,29.99,West,268,11.0,25.0,28,0.00,,,0.00,0,WeatherCatV1.14B232,2013-03-19 04:31:00,
2013-03-18 22:36:00,33.7,4.1,29.99,SW,233,5.0,21.0,28,0.00,,,0.00,0,WeatherCatV1.14B232,2013-03-19 04:36:00,
2013-03-18 22:41:00,33.7,4.1,29.99,SW,229,13.0,22.0,28,0.00,,,0.00,0,WeatherCatV1.14B232,2013-03-19 04:41:00,
2013-03-18 22:46:00,33.7,4.1,29.99,SSW,205,16.0,24.0,28,0.00,,,0.00,0,WeatherCatV1.14B232,2013-03-19 04:46:00,
2013-03-18 22:51:00,33.7,4.1,29.99,West,281,8.0,18.0,28,0.00,,,0.00,0,WeatherCatV1.14B232,2013-03-19 04:51:00,
2013-03-18 22:56:00,33.5,3.1,29.99,WNW,291,13.0,20.0,27,0.00,,,0.00,0,WeatherCatV1.14B232,2013-03-19 04:56:00,
2013-03-18 23:01:00,33.5,3.9,29.99,West,268,13.0,14.0,28,0.00,,,0.00,0,WeatherCatV1.14B232,2013-03-19 05:01:00,
2013-03-18 23:06:00,33.4,3.8,29.99,West,264,10.0,14.0,28,0.00,,,0.00,0,WeatherCatV1.14B232,2013-03-19 05:06:00,
2013-03-18 23:11:00,33.2,3.7,29.99,SW,227,3.0,8.0,28,0.00,,,0.00,0,WeatherCatV1.14B232,2013-03-19 05:11:00,
2013-03-18 23:16:00,33.2,3.7,29.99,WSW,250,5.0,18.0,28,0.00,,,0.00,0,WeatherCatV1.14B232,2013-03-19 05:16:00,
2013-03-18 23:21:00,33.4,3.8,29.99,WSW,244,8.0,8.0,28,0.00,,,0.00,0,WeatherCatV1.14B232,2013-03-19 05:21:00,
2013-03-18 23:26:00,33.4,3.1,29.99,WSW,237,7.0,18.0,27,0.00,,,0.00,0,WeatherCatV1.14B232,2013-03-19 05:26:00,
2013-03-18 23:31:00,33.5,3.9,29.99,WSW,256,11.0,17.0,28,0.00,,,0.00,0,WeatherCatV1.14B232,2013-03-19 05:31:00,
2013-03-18 23:36:00,33.8,4.2,29.99,SSW,210,6.0,17.0,28,0.00,,,0.00,0,WeatherCatV1.14B232,2013-03-19 05:36:00,
2013-03-18 23:41:00,33.7,3.3,29.99,WNW,291,5.0,13.0,27,0.00,,,0.00,0,WeatherCatV1.14B232,2013-03-19 05:41:00,
2013-03-18 23:46:00,33.7,4.1,29.99,West,265,10.0,13.0,28,0.00,,,0.00,0,WeatherCatV1.14B232,2013-03-19 05:46:00,
2013-03-18 23:51:00,33.8,4.2,29.99,NNW,339,5.0,28.0,28,0.00,,,0.00,0,WeatherCatV1.14B232,2013-03-19 05:51:00,
2013-03-18 23:56:00,34.0,4.4,29.99,West,271,10.0,20.0,28,0.00,,,0.00,0,WeatherCatV1.14B232,2013-03-19 05:56:00,